When you browse on this site, cookies collect data to enhance your experience and personalize the content and advertising you see.
Visit our Privacy Policy to learn more. By continuing to use the site, you agree to this use of cookies and data.
  • In Romania
  • List of Countries
  • For 7 days
  • Water Temperature
  • Satellite Maps
  • Weather Map
  • Weather Widgets
  • user-avatar
    Login

    Hourly Weather Arroyomolinos

    Today, 17 February, Sunday

    Time Temperature Precipitation Wind Pressure Humidity
    00:00 +7°C° 0 mm 4 mps 708 mmHg 55%
    01:00 +6°C° 0 mm 4 mps 708 mmHg 56%
    02:00 +6°C° 0 mm 4 mps 707 mmHg 56%
    03:00 +5°C° 0 mm 4 mps 707 mmHg 56%
    04:00 +5°C° 0 mm 4 mps 707 mmHg 55%
    05:00 +4°C° 0 mm 3 mps 707 mmHg 54%
    06:00 +4°C° 0 mm 3 mps 707 mmHg 53%
    07:00 +5°C° 0 mm 3 mps 707 mmHg 50%
    08:00 +5°C° 0 mm 3 mps 707 mmHg 47%
    09:00 +6°C° 0 mm 4 mps 707 mmHg 43%
    10:00 +8°C° 0 mm 3 mps 707 mmHg 40%
    11:00 +10°C° 0 mm 3 mps 706 mmHg 37%
    12:00 +11°C° 0 mm 3 mps 706 mmHg 34%
    13:00 +13°C° 0 mm 2 mps 706 mmHg 32%
    14:00 +14°C° 0 mm 2 mps 705 mmHg 30%
    15:00 +15°C° 0 mm 2 mps 705 mmHg 29%
    16:00 +14°C° 0 mm 1 mps 704 mmHg 32%
    17:00 +12°C° 0 mm 1 mps 704 mmHg 35%
    18:00 +11°C° 0 mm 1 mps 703 mmHg 39%
    19:00 +11°C° 0 mm 1 mps 704 mmHg 39%
    20:00 +10°C° 0 mm 1 mps 704 mmHg 40%
    21:00 +8°C° 0 mm 2 mps 704 mmHg 41%
    22:00 +8°C° 0 mm 2 mps 704 mmHg 44%
    23:00 +8°C° 0 mm 2 mps 704 mmHg 48%

    Tomorrow, 18 February, Monday

    Time Temperature Precipitation Wind Pressure Humidity
    00:00 +7°C° 0 mm 2 mps 704 mmHg 52%
    01:00 +7°C° 0 mm 2 mps 704 mmHg 58%
    02:00 +6°C° 0 mm 2 mps 704 mmHg 64%
    03:00 +5°C° 0 mm 3 mps 703 mmHg 71%
    04:00 +5°C° 0 mm 3 mps 703 mmHg 75%
    05:00 +4°C° 0 mm 3 mps 703 mmHg 80%
    06:00 +4°C° 0 mm 3 mps 703 mmHg 84%
    07:00 +4°C° 0 mm 4 mps 703 mmHg 79%
    08:00 +5°C° 0 mm 4 mps 703 mmHg 74%
    09:00 +6°C° 0 mm 4 mps 703 mmHg 69%
    10:00 +7°C° 0 mm 4 mps 703 mmHg 61%
    11:00 +10°C° 0 mm 4 mps 703 mmHg 53%
    12:00 +11°C° 0 mm 3 mps 702 mmHg 45%
    13:00 +12°C° 0 mm 3 mps 702 mmHg 41%
    14:00 +13°C° 0 mm 3 mps 702 mmHg 38%
    15:00 +14°C° 0 mm 3 mps 701 mmHg 35%
    16:00 +13°C° 0 mm 3 mps 701 mmHg 37%
    17:00 +12°C° 0 mm 3 mps 701 mmHg 39%
    18:00 +12°C° 0 mm 2 mps 702 mmHg 42%
    19:00 +10°C° 0 mm 3 mps 702 mmHg 45%
    20:00 +10°C° 0 mm 3 mps 703 mmHg 48%
    21:00 +8°C° 0 mm 4 mps 703 mmHg 50%
    22:00 +7°C° 0 mm 4 mps 703 mmHg 57%
    23:00 +8°C° 0 mm 3 mps 704 mmHg 63%

    Day after tomorrow, 19 February, Tuesday

    Time Temperature Precipitation Wind Pressure Humidity
    00:00 +7°C° 0 mm 3 mps 704 mmHg 69%
    01:00 +7°C° 0 mm 3 mps 704 mmHg 70%
    02:00 +5°C° 0 mm 3 mps 704 mmHg 71%
    03:00 +5°C° 0 mm 3 mps 704 mmHg 72%
    04:00 +4°C° 0 mm 3 mps 704 mmHg 72%
    05:00 +5°C° 0 mm 2 mps 704 mmHg 71%
    06:00 +5°C° 0 mm 2 mps 704 mmHg 71%
    07:00 +6°C° 0 mm 2 mps 705 mmHg 65%
    08:00 +7°C° 0 mm 2 mps 705 mmHg 59%
    09:00 +8°C° 0 mm 2 mps 706 mmHg 53%
    10:00 +9°C° 0 mm 2 mps 706 mmHg 48%
    11:00 +10°C° 0 mm 2 mps 705 mmHg 43%
    12:00 +13°C° 0 mm 2 mps 705 mmHg 38%
    13:00 +13°C° 0 mm 2 mps 705 mmHg 35%
    14:00 +14°C° 0 mm 2 mps 705 mmHg 33%
    15:00 +15°C° 0 mm 2 mps 704 mmHg 30%
    16:00 +13°C° 0 mm 1 mps 704 mmHg 34%
    17:00 +12°C° 0 mm 1 mps 704 mmHg 37%
    18:00 +11°C° 0 mm 1 mps 704 mmHg 40%
    19:00 +10°C° 0 mm 1 mps 704 mmHg 40%
    20:00 +10°C° 0 mm 1 mps 705 mmHg 40%
    21:00 +9°C° 0 mm 2 mps 705 mmHg 41%
    22:00 +8°C° 0 mm 2 mps 706 mmHg 44%
    23:00 +7°C° 0 mm 2 mps 706 mmHg 47%

    20 February, Wednesday

    Time Temperature Precipitation Wind Pressure Humidity
    00:00 +7°C° 0 mm 2 mps 706 mmHg 50%
    01:00 +6°C° 0 mm 2 mps 706 mmHg 59%
    02:00 +6°C° 0 mm 2 mps 706 mmHg 68%
    03:00 +5°C° 0 mm 2 mps 706 mmHg 76%
    04:00 +5°C° 0 mm 2 mps 706 mmHg 78%
    05:00 +5°C° 0 mm 2 mps 706 mmHg 81%
    06:00 +5°C° 0 mm 1 mps 706 mmHg 83%
    07:00 +5°C° 0 mm 2 mps 707 mmHg 78%
    08:00 +6°C° 0 mm 2 mps 707 mmHg 72%
    09:00 +7°C° 0 mm 2 mps 708 mmHg 67%
    10:00 +10°C° 0 mm 1 mps 708 mmHg 60%
    11:00 +11°C° 0 mm 1 mps 708 mmHg 52%
    12:00 +13°C° 0 mm 1 mps 708 mmHg 45%
    13:00 +14°C° 0 mm 1 mps 707 mmHg 41%
    14:00 +14°C° 0 mm 1 mps 707 mmHg 38%
    15:00 +15°C° 0 mm 1 mps 707 mmHg 35%
    16:00 +14°C° 0 mm 1 mps 707 mmHg 39%
    17:00 +12°C° 0 mm 1 mps 707 mmHg 43%
    18:00 +10°C° 0 mm 0 mps 707 mmHg 48%
    19:00 +9°C° 0 mm 0 mps 707 mmHg 49%
    20:00 +10°C° 0 mm 1 mps 708 mmHg 49%
    21:00 +9°C° 0 mm 1 mps 708 mmHg 50%
    22:00 +9°C° 0 mm 1 mps 708 mmHg 51%
    23:00 +8°C° 0 mm 2 mps 709 mmHg 52%

    21 February, Thursday

    Time Temperature Precipitation Wind Pressure Humidity
    00:00 +7°C° 0 mm 2 mps 709 mmHg 53%
    01:00 +7°C° 0 mm 2 mps 709 mmHg 56%
    02:00 +6°C° 0 mm 2 mps 709 mmHg 59%
    03:00 +6°C° 0 mm 2 mps 709 mmHg 62%
    04:00 +5°C° 0 mm 2 mps 709 mmHg 65%
    05:00 +5°C° 0 mm 2 mps 709 mmHg 67%
    06:00 +5°C° 0 mm 2 mps 709 mmHg 70%
    07:00 +6°C° 0 mm 2 mps 709 mmHg 67%
    08:00 +6°C° 0 mm 2 mps 710 mmHg 65%
    09:00 +7°C° 0 mm 2 mps 710 mmHg 62%
    10:00 +9°C° 0 mm 2 mps 710 mmHg 56%
    11:00 +10°C° 0 mm 2 mps 710 mmHg 50%
    12:00 +13°C° 0 mm 2 mps 710 mmHg 44%
    13:00 +14°C° 0 mm 2 mps 710 mmHg 41%
    14:00 +14°C° 0 mm 2 mps 710 mmHg 37%
    15:00 +15°C° 0 mm 2 mps 710 mmHg 34%
    16:00 +14°C° 0 mm 2 mps 710 mmHg 36%
    17:00 +13°C° 0 mm 2 mps 709 mmHg 37%
    18:00 +12°C° 0 mm 2 mps 709 mmHg 39%
    19:00 +10°C° 0 mm 2 mps 710 mmHg 42%
    20:00 +9°C° 0 mm 2 mps 711 mmHg 44%
    21:00 +9°C° 0 mm 2 mps 711 mmHg 46%
    22:00 +8°C° 0 mm 2 mps 711 mmHg 48%
    23:00 +8°C° 0 mm 2 mps 712 mmHg 51%

    22 February, Friday

    Time Temperature Precipitation Wind Pressure Humidity
    00:00 +7°C° 0 mm 2 mps 712 mmHg 53%
    01:00 +7°C° 0 mm 2 mps 712 mmHg 55%
    02:00 +5°C° 0 mm 3 mps 711 mmHg 57%
    03:00 +5°C° 0 mm 3 mps 711 mmHg 59%
    04:00 +4°C° 0 mm 3 mps 711 mmHg 61%
    05:00 +5°C° 0 mm 2 mps 711 mmHg 64%
    06:00 +5°C° 0 mm 2 mps 711 mmHg 67%
    07:00 +6°C° 0 mm 2 mps 712 mmHg 64%
    08:00 +7°C° 0 mm 2 mps 712 mmHg 62%
    09:00 +8°C° 0 mm 3 mps 712 mmHg 59%
    10:00 +10°C° 0 mm 2 mps 712 mmHg 53%
    11:00 +12°C° 0 mm 1 mps 712 mmHg 48%
    12:00 +14°C° 0 mm 1 mps 712 mmHg 42%
    13:00 +15°C° 0 mm 1 mps 712 mmHg 38%
    14:00 +15°C° 0 mm 1 mps 711 mmHg 34%
    15:00 +16°C° 0 mm 1 mps 711 mmHg 30%
    16:00 +15°C° 0 mm 1 mps 711 mmHg 34%
    17:00 +12°C° 0 mm 0 mps 710 mmHg 38%
    18:00 +10°C° 0 mm 0 mps 710 mmHg 43%
    19:00 +10°C° 0 mm 0 mps 710 mmHg 44%
    20:00 +10°C° 0 mm 1 mps 711 mmHg 46%
    21:00 +9°C° 0 mm 1 mps 711 mmHg 47%
    22:00 +9°C° 0 mm 1 mps 711 mmHg 48%
    23:00 +8°C° 0 mm 1 mps 711 mmHg 50%
    Show more